Simultaneous Nadir Overpasses (SNOs) Predictions

Prediction of SNOs between AQUA and GOES-15 Satellite Orbit:

Table of predicted SNOs for the next 14.0 days since TLE Epoch: 4/10/2021
Index Date Time (AQUA) AQUA Lat,Lon GOES-15 Lat,Lon Distance(km) Time Diff (sec)
1 04/10/2021 10:13:10 0.24,-129.38 -0.01,-128.14 140.76 80
2 04/12/2021 10:00:58 -0.38,-126.42 -0.01,-128.09 190.17 80
3 04/12/2021 22:22:22 -0.75,-131.61 0.00,-128.08 401.19 80
4 04/14/2021 22:10:10 -0.12,-128.65 0.01,-128.03 70.65 80
5 04/16/2021 21:57:58 0.51,-125.69 0.01,-127.97 259.22 80
6 04/17/2021 10:19:13 0.59,-130.85 0.00,-127.96 327.88 80
7 04/19/2021 10:07:00 0.02,-127.88 0.00,-127.89 2.58 80
8 04/21/2021 09:54:48 -0.62,-124.92 -0.00,-127.82 329.43 80
9 04/21/2021 22:16:12 -0.51,-130.11 -0.01,-127.79 264.04 80
10 04/23/2021 22:04:00 0.14,-127.15 -0.01,-127.71 64.22 80
